Zurück zum Katalog

DB-WALI-WMU

AktivWissenschaftSSO
NORAD 68443·PAYLOAD·🇷🇴 Romania

Gestartet Mar 30, 2026 von Vandenberg Space Force Base

Loading…

Nächste Überflüge (nächste 24 Stunden)

TLE

AktuellSource: Space-Track

Epoche: Sep 13, 2026, 20:13 UTC

1 68443U 26067AD  26256.84247970  .00004139  00000-0  20511-3 0  9997
2 68443  97.4651 213.9548 0006198 113.5235 246.6651 15.18290437 25383

Verfolge DB-WALI-WMU in Echtzeit mit AllMySat

Download on the App Store